{"data":{"norad_id":55638,"intl_designator":"2023-021L","name":"STARLINK-5507","alt_names":[],"object_type":"PAYLOAD","status":"ACTIVE","operator":null,"country":"US","launch_date":"2023-02-17","launch_site_code":"AFWTR","launch_vehicle":null,"mission":null,"orbit_class":"UNKNOWN","rcs_meters":null,"size_class":null,"mass_kg":null,"dimensions":null,"purposes":["comms"],"wikipedia_slug":null,"has_3d_model":false,"image_url":null,"decayed_at":null,"tle_current":{"epoch":"2026-05-25T00:37:10.512768Z","epoch_age_seconds":66150,"freshness":"FRESH","line1":"1 55638U 23021L   26145.02581612  .00000289  00000+0  31987-4 0  9998","line2":"2 55638  70.0000  11.9456 0002668 270.6247  89.4606 14.98333524179734","mean_motion":14.98333524,"eccentricity":0.0002668,"inclination_deg":70,"raan_deg":11.9456,"arg_perigee_deg":270.6247,"mean_anomaly_deg":89.4606,"bstar":3.1987e-5,"rev_number":17973,"period_min":96.106773087191,"perigee_km":570.19068473066,"apogee_km":573.89930184228,"semimajor_km":6950.1819932865,"source":"CELESTRAK","updated_at":"2026-05-25T13:38:17.848803Z"}}}